User: anonymous   Login
Location: Unspecified
(0.0000°N, 0.0000°E)
Time: 17:44:23
(UTC+00:00)
Language:

ALOS - Orbit

View from above orbital plane
View from above orbital plane
View from above satellite
View from above satellite

Ground track
Ground track

The orbit data is extracted from the following two-line orbital elements,

1 28931U 06002A   18198.46933494  .00000133  00000-0  34767-4 0  9998
2 28931  97.8175 210.4453 0001799 108.5522 251.5880 14.62511166665234
Epoch (UTC): 17 July 2018 11:15:50
Eccentricity: 0.0001799
inclination: 97.8175°
perigee height: 684 km
apogee height: 686 km
right ascension of ascending node: 210.4453°
argument of perigee: 108.5522°
revolutions per day: 14.62511166
mean anomaly at epoch: 251.5880°
orbit number at epoch: 66523

The dashed part of the orbit path shows where the satellite is in the earth's shadow,  

DLR